Temp
51 43 42 48 51 51 49 47 43 48 51 47 47 51 55 55 50 52 54 53 52 57 62 60 62 63 61 61 63 65 65 65 64 61 62 60 61 64 65 65 65 65 65 64
43 42 47 50 51 49 48 46 44 46 48 48 44 48 52 50 52 55 55 54 54 55 57 60 59 59 59 61 63 64 65 64 64 65 65 62 61 61 63 65 65 65 64 64
39 43 50 50 47 46 45 44 42 45 45 45 42 46 47 50 52 52 54 55 54 57 56 58 57 57 56 57 59 62 64 63 65 65 62 60 60 61 62 61 63 64 64 64
45 50 47 47 46 48 43 48 49 44 43 38 43 38 43 47 50 50 56 52 56 54 56 56 56 54 53 53 54 57 59 60 63 63 62 62 62 61 60 61 61 62 64 64
39 41 43 42 45 50 45 50 47 43 41 38 37 34 42 40 45 49 54 54 59 54 55 54 52 52 50 50 51 53 55 55 59 62 63 62 59 59 59 61 62 63 62 62
44 45 47 46 51 52 51 47 45 41 40 32 38 37 37 40 47 50 50 54 52 51 51 50 48 49 48 48 50 50 52 53 53 56 60 61 61 60 60 61 61 61 61 61
38 39 42 47 44 48 47 43 30 30 30 29 31 33 47 47 47 49 52 52 48 48 46 46 46 47 47 48 49 50 50 51 51 52 55 60 59 60 60 62 61 60 60 59
34 32 41 44 43 42 42 41 31 23 24 30 32 31 41 49 46 49 50 47 45 44 45 46 46 46 46 46 48 49 49 49 50 51 51 55 57 59 58 58 58 59 59 58
34 34 40 42 42 47 40 40 43 31 22 28 33 36 46 46 48 48 47 45 45 44 44 45 45 45 45 46 47 48 48 48 49 49 50 51 54 55 55 54 55 55 55 53
40 34 37 39 42 42 43 48 38 35 23 22 31 31 37 43 49 48 45 44 44 44 43 43 43 43 44 45 46 47 48 47 47 47 48 48 49 51 52 54 51 51 52 52
40 38 32 38 37 37 38 38 38 40 33 27 24 34 43 50 48 47 46 46 45 44 43 42 42 43 43 43 44 44 45 45 45 45 45 46 46 47 47 49 49 48 48 48
39 35 28 33 37 37 38 42 45 37 32 32 32 39 45 46 48 47 47 47 45 43 42 42 42 41 42 42 42 42 43 43 43 43 43 43 43 43 43 43 43 45 44 44
42 31 22 32 36 36 35 38 41 38 34 30 32 38 45 44 46 47 46 46 45 43 41 40 40 40 41 41 41 41 41 41 41 41 40 40 40 41 41 41 42 42 41 39
48 35 33 32 34 38 34 36 39 40 31 31 33 38 46 46 46 47 44 44 44 44 42 40 40 41 40 41 40 40 40 40 39 39 39 37 37 38 40 40 39 37 36 36
46 31 32 34 35 36 35 39 40 40 46 39 45 41 49 48 48 48 46 44 43 43 43 42 42 42 41 40 40 40 39 38 38 37 36 35 35 36 36 35 34 33 33 33
41 27 31 28 34 36 34 39 43 43 44 45 39 39 46 50 49 46 47 45 44 45 46 45 44 42 41 41 39 38 36 36 36 36 35 35 34 33 33 33 32 32 32 32
41 29 29 25 29 33 29 35 38 41 46 45 39 49 47 46 47 48 47 46 47 47 47 45 44 43 42 41 40 38 37 35 34 33 33 33 33 32 32 32 32 32 31 31
34 33 29 26 29 25 37 41 43 42 43 47 42 45 47 50 51 51 49 48 46 46 46 46 45 44 42 39 37 35 34 33 33 32 32 32 32 32 32 32 31 30 30 30
37 31 24 24 17 30 36 37 38 38 44 46 47 46 46 46 47 49 48 47 49 46 45 44 43 41 38 38 35 34 33 33 33 32 32 31 31 30 29 28 28 28 26 26
35 37 30 12 19 20 33 37 41 45 35 36 44 45 46 44 40 48 43 41 43 44 43 41 40 38 38 35 35 34 32 32 32 31 31 30 29 27 26 27 26 25 24 26
24 27 31 20 16 24 34 37 40 33 35 32 36 40 41 44 44 39 37 36 34 35 36 37 38 38 38 35 35 33 32 32 31 29 28 27 26 25 25 23 22 21 23 24
30 28 23 18 15 25 33 36 36 39 34 34 37 36 37 36 35 35 34 34 34 33 33 33 32 31 32 34 35 32 31 28 27 26 24 22 21 24 22 20 18 21 20 20
29 32 28 32 30 36 33 35 36 38 39 37 38 36 37 36 34 33 33 32 31 31 31 28 29 28 27 30 33 31 25 26 24 22 19 17 19 20 20 22 22 20 20 21
32 33 32 36 34 35 35 35 36 37 37 37 37 36 37 37 34 33 32 31 30 27 28 25 27 26 24 24 27 28 25 24 22 19 18 19 19 20 22 21 20 19 18 18
31 34 28 28 32 34 34 36 38 36 36 36 35 35 36 36 33 33 29 27 29 27 24 25 25 25 22 22 21 23 22 22 20 19 19 19 20 18 18 20 19 20 19 19
28 30 31 28 37 39 38 38 38 37 37 36 35 33 33 34 34 30 27 27 25 24 22 22 22 22 20 19 18 17 19 21 20 19 19 18 17 18 19 18 15 23 24 27
MSLP
1016.35 1016.76 1016.20 1017.37 1017.94 1018.09 1018.01 1018.12 1017.75 1017.21 1017.03 1017.84 1017.60 1017.00 1016.65 1016.94 1017.68 1017.88 1018.10 1018.40 1018.35 1017.94 1017.10 1017.49 1017.44 1017.79 1018.38 1018.67 1019.07 1019.30 1019.83 1020.36 1020.84 1021.44 1022.05 1022.34 1022.38 1022.53 1022.68 1022.97 1023.16 1023.45 1023.69 1023.99
1017.26 1016.36 1017.25 1017.90 1017.89 1018.29 1018.24 1018.04 1017.94 1017.62 1017.30 1017.88 1017.77 1017.50 1017.00 1017.29 1017.18 1017.07 1017.25 1017.94 1017.89 1017.63 1017.48 1017.35 1017.43 1017.61 1017.93 1018.30 1018.29 1018.91 1019.28 1019.80 1020.33 1020.76 1021.25 1021.66 1021.93 1022.29 1022.23 1022.48 1022.81 1023.06 1023.25 1023.50
1017.09 1017.23 1017.38 1018.14 1017.97 1018.21 1018.27 1018.20 1017.90 1018.14 1018.00 1017.99 1018.31 1018.21 1017.51 1016.90 1016.78 1016.77 1016.97 1017.06 1017.53 1017.45 1017.41 1017.33 1017.37 1017.63 1017.75 1018.19 1018.21 1018.40 1018.75 1019.19 1019.60 1020.12 1020.79 1021.43 1021.71 1021.98 1022.20 1022.25 1022.32 1022.48 1022.76 1023.06
1017.64 1017.36 1017.46 1018.00 1017.68 1017.97 1017.97 1017.99 1017.90 1018.33 1018.46 1018.52 1018.63 1017.86 1017.49 1016.81 1016.59 1016.47 1016.30 1016.48 1016.55 1016.89 1017.02 1017.35 1017.42 1017.64 1017.95 1018.14 1018.24 1018.43 1018.71 1019.12 1019.45 1019.79 1020.41 1020.80 1021.23 1021.51 1021.74 1021.77 1021.85 1022.00 1022.05 1022.44
1017.16 1017.38 1017.57 1017.69 1016.93 1017.71 1017.68 1018.05 1018.42 1018.59 1018.87 1019.10 1019.27 1019.30 1016.61 1016.88 1016.62 1016.08 1015.70 1015.86 1015.66 1016.05 1016.49 1017.30 1017.41 1017.56 1017.98 1018.15 1018.38 1018.49 1018.74 1019.19 1019.51 1019.55 1019.98 1020.55 1020.98 1021.13 1021.28 1021.63 1021.80 1021.87 1021.80 1021.93
1016.92 1016.75 1016.93 1016.69 1017.11 1017.46 1017.81 1018.38 1019.04 1019.32 1019.69 1019.98 1018.86 1019.15 1017.23 1016.62 1015.80 1015.41 1014.81 1014.75 1015.13 1015.94 1016.28 1017.18 1017.60 1017.85 1018.28 1018.35 1018.46 1019.01 1018.94 1019.24 1019.54 1019.69 1019.60 1019.80 1020.33 1020.77 1021.09 1021.32 1021.67 1021.75 1021.77 1021.75
1016.97 1016.82 1016.57 1016.40 1016.98 1017.25 1017.60 1018.85 1019.85 1020.57 1020.59 1019.81 1019.14 1019.25 1016.63 1015.41 1015.03 1014.96 1014.77 1014.72 1015.04 1015.64 1016.53 1017.44 1017.95 1018.04 1018.53 1018.40 1018.45 1018.84 1019.17 1019.25 1019.24 1019.64 1019.78 1019.53 1019.73 1020.33 1020.67 1020.76 1020.99 1021.55 1021.71 1021.85
1016.95 1017.08 1016.40 1015.79 1015.60 1015.82 1016.91 1017.49 1018.19 1019.32 1020.31 1020.10 1019.75 1018.27 1015.65 1014.69 1014.65 1014.75 1014.79 1014.98 1015.37 1016.29 1017.18 1017.84 1018.23 1018.47 1018.84 1018.92 1018.93 1018.97 1019.24 1019.29 1019.30 1019.39 1019.58 1019.51 1019.73 1020.08 1020.41 1020.64 1020.97 1021.22 1021.65 1021.92
1015.80 1016.28 1016.22 1015.96 1015.75 1015.40 1016.74 1016.99 1017.25 1018.87 1020.57 1020.01 1018.85 1017.34 1015.41 1014.42 1014.46 1014.71 1014.93 1015.60 1016.06 1016.79 1017.47 1017.94 1018.37 1018.55 1018.90 1019.06 1019.31 1019.37 1019.47 1019.50 1019.61 1019.74 1019.68 1019.70 1019.73 1019.99 1020.51 1020.85 1021.18 1021.48 1021.87 1022.19
1014.44 1016.04 1016.44 1016.30 1015.84 1015.40 1015.34 1016.34 1017.40 1017.99 1019.46 1019.49 1018.18 1017.31 1015.29 1014.47 1014.24 1014.11 1014.98 1015.44 1016.31 1017.26 1017.61 1018.10 1018.52 1018.75 1018.94 1019.21 1019.47 1019.58 1019.77 1019.64 1019.83 1019.96 1020.01 1020.01 1020.13 1020.16 1020.68 1021.26 1021.60 1022.10 1022.40 1022.45
1014.16 1014.79 1016.99 1016.80 1015.81 1015.22 1015.83 1015.76 1016.31 1017.10 1018.12 1018.09 1017.87 1015.93 1014.01 1013.32 1013.27 1013.87 1014.66 1015.36 1016.12 1017.09 1017.65 1018.27 1018.65 1018.88 1018.99 1019.42 1019.70 1020.02 1020.07 1020.11 1020.27 1020.59 1020.55 1020.50 1020.67 1020.96 1021.05 1021.89 1021.74 1022.80 1023.11 1023.19
1013.88 1014.96 1016.70 1016.57 1015.88 1015.42 1015.40 1015.24 1015.64 1016.70 1017.40 1017.60 1016.82 1014.23 1013.20 1013.12 1012.91 1013.36 1013.96 1014.97 1016.00 1017.10 1017.98 1018.44 1018.75 1019.06 1019.16 1019.69 1020.06 1020.39 1020.33 1020.39 1020.77 1021.03 1020.89 1021.04 1021.19 1021.42 1021.93 1022.53 1022.41 1023.05 1023.84 1024.39
1013.11 1014.65 1016.75 1017.07 1016.43 1015.95 1015.73 1015.25 1015.03 1015.41 1016.05 1016.32 1016.12 1013.60 1013.23 1013.28 1013.19 1013.52 1014.03 1014.68 1015.79 1017.15 1018.05 1018.66 1019.11 1019.33 1019.72 1020.02 1020.23 1020.43 1020.56 1021.00 1021.32 1021.35 1021.63 1021.97 1022.14 1022.35 1022.70 1022.79 1023.21 1023.62 1024.47 1025.34
1012.07 1014.04 1015.25 1015.18 1014.35 1015.23 1015.95 1015.47 1015.24 1015.16 1015.92 1015.40 1014.27 1013.66 1013.09 1013.10 1013.36 1013.63 1014.17 1014.83 1015.73 1016.69 1017.47 1018.31 1019.06 1019.32 1020.28 1020.27 1020.38 1020.74 1020.97 1021.34 1021.69 1021.96 1022.29 1022.82 1022.97 1023.38 1023.33 1023.57 1023.98 1024.43 1025.28 1025.99
1011.98 1014.11 1015.23 1015.08 1014.83 1014.62 1014.42 1014.24 1014.47 1014.70 1013.79 1014.04 1012.68 1013.23 1012.48 1012.48 1013.05 1013.49 1013.98 1015.05 1015.86 1016.56 1017.13 1017.50 1018.39 1019.30 1019.96 1020.26 1020.49 1020.94 1021.36 1021.93 1022.03 1022.25 1022.74 1023.34 1023.65 1023.85 1024.25 1024.49 1024.91 1025.34 1026.03 1026.53
1012.66 1014.34 1015.09 1016.15 1015.55 1015.20 1014.73 1014.12 1013.70 1012.62 1012.86 1012.49 1012.68 1012.21 1011.75 1012.03 1012.42 1013.24 1013.95 1014.79 1015.47 1015.85 1016.35 1017.01 1017.72 1018.27 1019.01 1019.61 1020.44 1021.11 1021.83 1022.14 1022.34 1022.86 1023.35 1023.76 1024.17 1024.53 1025.10 1025.34 1025.59 1026.17 1026.57 1027.02
1012.90 1014.28 1015.74 1016.92 1016.35 1015.68 1015.08 1012.90 1012.97 1012.88 1011.97 1012.19 1011.91 1011.41 1011.90 1012.34 1012.60 1012.96 1013.88 1014.25 1014.57 1014.88 1015.26 1016.08 1016.66 1017.44 1018.30 1019.13 1020.06 1021.06 1021.66 1022.08 1022.71 1023.13 1023.84 1024.25 1024.61 1025.05 1025.57 1025.79 1026.21 1026.54 1026.95 1027.36
1013.03 1014.65 1016.10 1017.35 1017.16 1016.16 1012.13 1011.72 1011.64 1011.81 1011.31 1011.31 1011.28 1011.28 1011.38 1011.37 1011.52 1012.00 1012.56 1013.12 1013.82 1014.41 1014.81 1015.42 1016.24 1017.32 1018.12 1019.07 1020.10 1020.92 1021.79 1022.58 1023.02 1023.61 1024.22 1024.65 1024.98 1025.46 1025.86 1026.20 1026.52 1026.94 1027.48 1027.81
1013.24 1014.66 1016.92 1017.67 1017.59 1015.57 1012.92 1012.35 1012.11 1012.01 1010.70 1010.65 1010.88 1011.39 1011.23 1011.60 1012.02 1012.19 1012.12 1012.62 1013.12 1013.85 1014.43 1014.97 1015.92 1016.93 1017.97 1018.91 1019.94 1021.07 1022.08 1022.73 1023.24 1023.87 1024.39 1024.83 1025.21 1025.76 1026.14 1026.63 1026.96 1027.51 1027.87 1028.01
1013.92 1014.22 1015.66 1017.68 1017.48 1015.30 1012.77 1011.73 1011.29 1011.54 1010.29 1010.28 1010.53 1010.96 1011.34 1012.15 1012.90 1012.05 1012.56 1013.06 1013.51 1013.93 1014.38 1014.90 1015.77 1016.73 1017.71 1018.79 1019.59 1020.71 1021.91 1022.58 1023.32 1023.81 1024.32 1024.87 1025.40 1025.78 1026.32 1026.85 1027.30 1027.71 1027.99 1028.19
1015.08 1015.63 1016.12 1017.08 1016.56 1014.32 1012.43 1011.69 1011.72 1012.12 1010.95 1010.64 1010.67 1010.84 1011.50 1012.06 1012.12 1012.91 1013.41 1014.14 1014.69 1015.01 1015.22 1015.68 1016.32 1016.81 1017.71 1018.85 1019.63 1020.67 1021.63 1022.47 1023.08 1023.78 1024.54 1025.24 1025.69 1026.02 1026.57 1027.20 1027.44 1027.68 1028.02 1028.25
1013.75 1014.93 1015.72 1016.20 1015.89 1013.84 1011.96 1012.37 1011.83 1011.26 1011.52 1011.64 1011.56 1011.70 1012.05 1012.51 1013.24 1013.84 1014.45 1015.17 1015.76 1016.15 1016.37 1016.65 1017.21 1017.83 1018.50 1019.03 1019.63 1020.74 1021.64 1022.33 1023.17 1024.04 1024.96 1025.72 1026.41 1026.83 1027.27 1027.61 1027.89 1028.11 1028.34 1028.70
1013.07 1012.33 1012.90 1013.30 1012.38 1011.54 1011.64 1011.48 1011.17 1011.25 1011.54 1011.99 1012.01 1012.33 1012.69 1013.31 1014.28 1015.06 1015.61 1016.21 1016.67 1017.00 1017.30 1017.72 1017.99 1018.60 1019.14 1019.46 1019.88 1020.82 1021.77 1022.45 1023.55 1024.72 1025.72 1026.24 1026.61 1027.01 1027.34 1027.61 1027.93 1028.29 1028.51 1028.65
1012.52 1012.04 1012.08 1012.38 1011.39 1011.17 1011.42 1011.49 1011.64 1011.85 1011.95 1012.20 1012.28 1012.76 1013.12 1013.65 1014.57 1015.30 1015.94 1016.57 1017.10 1017.76 1018.16 1018.41 1018.71 1019.34 1020.08 1020.29 1020.79 1021.26 1022.03 1022.82 1023.81 1024.69 1025.53 1026.10 1026.59 1027.09 1027.36 1027.59 1027.98 1028.12 1028.31 1028.57
1011.88 1011.86 1011.81 1011.78 1011.63 1011.69 1011.60 1011.71 1011.87 1012.29 1012.59 1012.91 1013.30 1013.51 1013.79 1014.27 1015.16 1015.81 1016.44 1017.25 1017.82 1018.36 1018.87 1019.24 1019.73 1020.25 1020.81 1021.13 1021.71 1022.25 1022.77 1023.30 1024.15 1024.95 1025.68 1026.29 1026.69 1027.11 1027.64 1027.93 1027.93 1027.91 1028.10 1028.21
1011.58 1011.19 1011.17 1010.82 1010.73 1010.90 1011.13 1011.56 1012.19 1012.91 1013.30 1013.62 1013.97 1014.32 1014.56 1015.08 1015.78 1016.52 1017.26 1017.73 1018.22 1018.74 1019.19 1019.61 1020.00 1020.37 1021.02 1021.55 1022.20 1022.71 1023.06 1023.64 1024.46 1025.29 1025.76 1026.10 1026.69 1027.24 1027.57 1027.81 1028.14 1027.91 1027.86 1027.73
Wind_Speed
5 6 17 17 6 1 7 8 4 5 6 3 7 7 11 4 4 6 8 8 9 12 12 7 9 10 8 8 10 13 13 12 9 5 5 3 3 3 4 4 6 6 5 6
3 17 7 6 2 2 3 5 7 2 2 4 1 10 10 3 7 10 10 8 12 6 8 9 9 8 10 12 13 12 13 12 11 8 6 4 4 3 3 5 6 7 7 7
5 4 8 6 4 7 4 5 4 3 2 3 2 7 7 6 6 4 7 9 6 11 11 9 8 9 7 9 11 12 13 13 12 12 4 3 3 2 3 3 4 6 8 8
3 3 14 12 16 8 10 6 4 4 4 4 3 10 7 7 9 7 13 9 13 11 7 6 7 7 7 6 5 6 6 7 8 9 9 11 8 7 4 4 3 5 9 9
8 11 12 15 8 8 6 5 6 3 3 2 2 1 8 1 7 9 15 15 17 10 10 10 9 7 5 6 5 5 5 5 5 9 10 8 5 4 3 3 5 6 4 6
8 3 12 13 9 10 7 5 4 4 3 3 8 8 6 7 9 7 7 12 12 10 8 7 6 7 5 4 5 3 5 4 5 6 9 12 11 8 5 4 4 3 4 3
3 3 2 6 6 4 8 11 2 1 2 8 1 4 12 6 8 7 8 10 8 8 8 8 9 8 6 7 6 5 5 5 5 7 7 10 10 9 8 7 5 5 3 3
11 9 9 4 7 9 8 8 7 9 5 2 2 8 9 8 3 7 7 3 4 6 5 7 6 5 4 4 4 5 5 4 5 6 8 6 7 5 4 4 2 3 2 2
9 7 2 2 2 9 5 10 4 7 2 3 5 7 10 6 9 7 7 5 8 8 8 8 7 6 5 4 3 4 4 3 3 2 3 5 6 6 5 6 5 5 4 4
7 6 1 2 2 1 9 10 4 2 5 3 3 5 6 5 12 9 8 9 7 6 7 7 6 7 4 4 3 4 4 5 3 3 3 4 5 6 7 6 7 7 5 6
6 6 2 2 6 9 3 4 2 5 5 6 2 7 10 15 7 9 9 9 9 8 7 7 6 5 6 4 4 4 4 5 5 4 4 6 6 6 7 6 9 7 6 7
2 7 4 7 2 2 1 7 10 7 8 1 4 10 2 7 5 7 7 7 6 6 7 6 6 6 6 5 4 5 5 6 5 4 5 6 7 7 7 6 9 8 8 6
9 1 5 4 4 1 4 4 4 5 4 8 8 8 1 5 5 4 7 8 7 7 7 6 5 6 5 6 6 6 5 5 5 5 6 6 6 7 8 8 9 9 8 6
9 5 9 13 5 10 5 5 4 5 4 4 9 4 7 5 5 4 2 5 8 9 9 7 5 5 6 6 6 5 5 5 5 6 6 6 6 5 8 8 9 8 7 7
6 7 4 2 2 3 5 11 10 8 18 11 16 9 13 5 7 6 3 5 7 8 9 9 9 8 7 6 5 5 5 5 5 7 7 6 6 7 7 8 8 7 7 6
2 3 4 1 3 2 1 7 17 24 16 19 4 8 3 3 5 5 8 8 9 11 12 13 12 10 9 8 6 6 6 6 6 7 8 6 7 7 7 7 7 7 7 6
13 8 5 5 1 3 6 11 13 12 15 13 15 15 6 5 8 8 9 11 12 12 13 13 13 12 11 11 10 10 8 6 7 8 6 6 6 7 6 6 6 6 6 5
7 7 3 3 2 4 6 5 8 16 9 17 1 4 10 11 10 9 9 12 11 10 10 11 11 11 10 8 8 8 8 7 8 7 7 6 6 7 6 6 6 6 4 5
1 6 5 7 5 5 8 6 7 9 17 17 18 7 5 3 5 7 7 8 10 8 7 7 8 9 9 12 11 11 9 8 9 8 7 6 6 6 6 6 6 4 4 3
4 4 6 4 8 14 1 6 6 7 17 6 12 14 13 8 5 9 4 3 1 4 5 8 9 8 12 12 14 14 11 10 10 9 8 6 6 6 6 6 6 2 2 4
4 3 11 3 5 10 8 5 5 10 8 1 3 5 7 10 4 3 3 3 3 3 4 6 9 11 11 12 14 12 11 11 8 8 8 6 5 6 6 5 2 4 4 4
8 7 4 4 1 15 7 4 11 5 1 3 3 2 6 5 4 3 5 4 4 4 4 5 7 7 8 11 13 12 12 9 9 9 8 6 5 4 4 6 3 4 4 5
3 7 8 11 8 3 6 0 1 3 5 4 5 2 5 7 4 4 4 4 3 3 4 2 6 7 4 5 9 12 8 11 10 9 7 5 6 5 5 6 6 4 4 3
4 2 3 4 3 5 5 2 2 2 3 4 4 5 5 5 6 3 3 2 3 3 3 2 6 6 4 4 5 7 11 11 11 10 8 7 7 5 4 3 3 4 3 3
4 8 7 3 2 1 2 4 6 3 4 5 3 3 5 6 3 3 3 4 4 5 3 4 5 5 5 5 5 7 9 10 9 8 6 5 4 4 4 3 3 3 2 3
5 7 6 6 7 3 4 8 7 8 5 5 4 3 3 3 4 3 1 2 3 3 2 3 4 6 6 7 7 6 7 8 9 7 6 5 5 5 5 5 3 1 3 6
Wind_Direction
187 146 196 184 160 266 183 199 210 198 147 214 218 239 241 191 206 236 228 232 234 225 241 226 213 207 194 193 187 191 186 194 180 172 190 195 210 190 193 195 194 186 193 196
141 215 156 148 151 231 244 195 199 340 84 147 110 261 267 229 227 210 211 231 232 232 244 237 218 202 195 196 193 192 195 186 191 191 195 174 163 201 197 189 196 198 195 196
174 172 141 211 206 226 211 202 176 153 143 109 85 277 253 241 242 224 233 224 232 229 236 242 219 209 193 203 191 189 192 189 190 190 151 104 105 108 170 194 191 197 200 205
226 215 173 195 225 196 225 199 170 139 126 199 139 255 256 235 239 225 237 230 232 225 227 247 213 203 197 196 164 180 175 179 189 170 183 196 198 193 198 193 192 205 199 204
216 170 180 210 193 178 202 176 187 172 141 109 168 262 266 320 248 242 242 232 231 216 198 223 207 186 179 151 155 152 154 185 187 183 189 192 192 185 174 179 201 216 200 199
203 174 178 189 173 191 155 78 42 64 94 265 197 178 246 201 207 240 243 236 215 196 191 194 171 144 147 137 132 164 163 194 199 202 191 192 196 183 183 180 199 214 213 207
143 228 221 143 129 130 170 142 171 249 184 224 73 155 242 257 242 227 252 259 218 175 167 172 171 165 171 159 147 152 177 208 210 210 217 198 187 190 192 192 183 197 197 207
169 213 172 189 187 173 192 158 167 188 190 190 87 226 250 232 273 255 271 273 147 154 164 167 164 157 153 148 138 134 156 184 199 209 217 203 180 191 188 177 167 152 118 91
158 213 321 189 168 149 186 193 160 101 12 80 204 287 297 248 265 257 241 187 190 180 177 167 156 153 148 139 151 157 145 139 162 179 177 189 180 159 148 114 104 92 93 86
188 160 323 233 163 137 179 160 176 18 132 234 282 277 238 267 236 220 217 204 192 184 170 166 167 161 150 147 139 134 155 143 132 115 103 102 107 107 107 115 108 92 85 87
143 111 224 176 213 158 136 186 109 123 153 179 190 254 218 227 214 216 216 205 189 182 175 173 171 164 146 135 140 141 131 128 115 115 107 98 86 84 88 99 102 88 83 86
161 113 148 207 238 124 332 182 178 177 222 244 145 253 238 236 226 214 206 191 178 169 183 174 167 159 150 158 149 150 134 120 117 118 102 96 98 97 96 105 88 92 85 69
179 99 76 2 356 9 214 210 162 110 73 200 193 248 340 288 282 265 211 185 167 168 170 176 164 173 176 174 166 157 138 129 123 104 99 87 87 96 101 93 98 93 97 88
117 136 168 202 212 135 195 189 175 139 164 173 233 221 282 265 284 292 238 173 166 174 172 170 182 182 198 183 169 159 135 128 120 106 96 96 91 95 98 96 92 93 90 92
133 171 146 78 320 120 185 178 167 190 217 193 234 200 237 217 224 252 216 170 166 176 177 182 189 190 189 176 157 140 128 137 128 112 105 102 97 89 90 92 91 90 87 90
180 181 118 18 22 193 163 195 201 210 218 231 96 249 232 210 135 175 205 179 195 196 199 196 191 182 180 169 162 149 153 138 121 116 113 110 104 102 100 101 97 95 89 84
182 130 120 225 19 94 308 209 211 219 218 201 218 232 173 205 212 208 207 203 208 207 199 198 196 186 180 174 164 167 155 132 127 123 123 125 123 115 113 109 105 99 97 104
137 115 64 151 61 208 247 204 189 206 219 220 53 201 188 208 212 219 206 198 207 207 199 197 189 185 172 150 139 128 130 132 131 129 132 132 127 125 123 113 105 104 103 109
49 123 113 143 195 295 252 247 150 174 251 216 216 195 199 197 106 261 216 197 213 206 205 197 175 159 145 151 142 137 138 139 140 147 146 142 137 131 126 117 117 104 102 93
53 80 115 116 165 223 73 201 159 97 265 221 185 195 200 139 192 231 127 65 249 215 184 175 161 144 152 158 150 148 155 155 160 156 148 135 133 133 127 129 126 112 118 118
91 59 204 136 226 286 237 164 147 158 257 19 195 200 158 192 205 106 89 68 21 29 123 123 147 163 161 152 151 154 155 170 148 127 123 122 123 124 125 125 115 134 119 96
150 149 184 89 101 258 167 67 162 208 39 169 117 170 170 118 126 92 78 69 54 89 89 108 122 128 144 154 152 154 165 138 128 122 117 114 108 108 115 119 101 96 104 111
202 183 173 179 209 218 212 107 102 155 147 189 134 115 127 126 160 159 143 130 113 115 111 69 125 124 115 149 159 155 142 132 124 120 126 132 128 134 153 147 141 124 133 137
246 185 180 104 215 193 204 102 142 187 148 142 117 132 131 123 145 148 139 157 134 117 128 61 115 131 130 91 101 129 142 138 138 142 150 151 151 148 134 112 129 136 147 133
186 142 162 290 297 355 221 211 159 104 84 87 71 116 136 115 158 182 188 176 183 161 135 132 139 137 136 114 110 135 140 140 141 139 146 146 130 134 129 130 154 159 184 150
187 174 172 219 191 163 200 173 160 149 155 156 133 118 91 140 181 165 209 186 146 160 137 125 134 136 152 142 136 132 137 141 143 149 161 160 153 164 168 160 136 34 149 196